Location: Huesca
(42.1318°N, 0.4078°W)
Time: 09:58:36
(UTC+02:00)

TIGRISAT - Pass Details

Date: 29 April 2024
Orbit: 594 x 672 km, 97.7° (Epoch: 21 May)

Event Time Altitude Azimuth Distance (km) Brightness Sun altitude
Rises 05:41:10 0° 157° (SSE) 2,907 ? -13.7°
Reaches altitude 10° 05:43:23 10° 154° (SSE) 1,991 ? -13.4°
Maximum altitude 05:47:39 60° 74° (ENE) 705 ? -12.7°
Drops below altitude 10° 05:51:51 10° 355° (N) 1,964 ? -12.1°
Sets 05:54:02 0° 352° (N) 2,863 ? -11.7°
